Regional Weather Roundup
Issued by NWS Sioux Falls, SD

Home | Current Version | Previous Version | Graphics & Text | Print | Product List | Glossary On
Versions: 1 2 3 4 5 6 7 8 9 10 11 12 13 14 15 16 17 18 19 20 21 22 23 24 25 26 27 28 29 30 31 32 33 34 35 36 37 38 39 40 41 42 43 44 45 46 47 48 49 50
000
ASUS43 KFSD 290110
RWRFSD

WEATHER ROUNDUP FOR SE SOUTH DAKOTA/SW MINNESOTA/NW IOWA
NATIONAL WEATHER SERVICE SIOUX FALLS SD
800 PM CDT FRI APR 28 2017

NOTE: "FAIR" INDICATES FEW OR NO CLOUDS BELOW 12,000 FEET WITH NO
SIGNIFICANT WEATHER AND OR OBSTRUCTIONS TO VISIBILITY.


SDZ038>040-050-052>070-290200-
SOUTHEAST SOUTH DAKOTA

CITY           SKY/WX    TMP DP  RH WIND       PRES   REMARKS
BROOKINGS      PTCLDY    45  25  45 N13       30.04R
CHAMBERLAIN    PTCLDY    51  22  31 N8        30.06R
HURON          CLEAR     48  20  32 NE14      30.05R
MADISON        FAIR      45  25  45 NE17G25   30.01R
MITCHELL       CLEAR     51  22  31 NE16      30.06R
SIOUX FALLS    MOCLDY    46  32  58 NE10      30.01R
WINNER         MOCLDY    50  26  39 NE13      30.05R
YANKTON        CLOUDY    46  30  53 NE7       30.02R
$$

MNZ071-072-080-081-089-090-097-098-290200-
SOUTHWEST MINNESOTA

CITY           SKY/WX    TMP DP  RH WIND       PRES   REMARKS
FAIRMONT       CLOUDY    45  34  65 N9        30.00R
JACKSON        CLOUDY    45  32  61 NE12      30.00S
LUVERNE        PTCLDY    45  30  57 NE12G17   30.00S
MARSHALL       CLEAR     48  21  34 N12       30.05R
MONTEVIDEO     CLOUDY    48  23  37 NE8       30.05R
PIPESTONE      PTCLDY    46  19  34 NE12G20   30.01R
REDWOOD FALLS  PTCLDY    50  24  36 N6        30.03R
TRACY          CLEAR     47  31  53 N9        30.04R
WINDOM         CLOUDY    48  30  49 N12       30.02R
WORTHINGTON    PTCLDY    45  31  58 N16       29.99S
$$

IAZ001>003-012>014-020>022-031-032-NEZ013-014-SDZ071-290200-
NORTHWEST IOWA

CITY           SKY/WX    TMP DP  RH WIND       PRES   REMARKS
CHEROKEE       CLOUDY    45  35  68 NE6       29.99R
DENISON        CLOUDY    43  37  81 NE10      29.98R
ESTHERVILLE    CLOUDY    44  35  70 NE12      30.00R
LE MARS        CLOUDY    46  32  57 NE7       30.00R
ORANGE CITY    CLOUDY    46  34  61 NE5       30.01R
SHELDON        CLOUDY    46  34  61 NE13      29.99R
SIOUX CITY     CLOUDY    46  35  65 NE8       29.99R
SPENCER        CLOUDY    46  33  60 NE15      29.99R
STORM LAKE     CLOUDY    43  34  70 NE17      29.97S
$$

ABBREVIATIONS USED IN REMARKS
   TC - TEMPERATURE IN CELSIUS
  WCI - WIND CHILL INDEX
   HX - HEAT INDEX
  VSB - VISIBILITY





USA.gov is the U.S. government's official web portal to all federal, state and local government web resources and services.